AirNav   Air Wisconsin Airman Trainee
 
 1189 users online  

KVVS Joseph A Hardy Connellsville Airport
Connellsville, Pennsylvania, USA

GOING TO CONNELLSVILLE?


FAA INFORMATION EFFECTIVE 28 MARCH 2019

Location

FAA Identifier: VVS
Lat/Long: 39-57-32.6000N / 079-39-26.7000W
39-57.543333N / 079-39.445000W
39.9590556 / -79.6574167
(estimated)
Elevation: 1264.4 ft. / 385.4 m (surveyed)
Variation: 08W (1990)
From city: 5 miles SW of CONNELLSVILLE, PA
Time zone: UTC -4 (UTC -5 during Standard Time)
Zip code: 15431

Airport Operations

Airport use: Open to the public
Activation date: 04/1940
Control tower: no
ARTCC: CLEVELAND CENTER
FSS: ALTOONA FLIGHT SERVICE STATION
NOTAMs facility: AOO (NOTAM-D service available)
Attendance: 0800 - 1700
Wind indicator: lighted
Segmented circle: yes
Lights: ACTVT REIL RWY 05; MIRL RWY 05/23 & 14/32 - CTAF.
Beacon: white-green (lighted land airport)
Operates sunset to sunrise.
Landing fee: yes, LDG FEE FOR ALL ACFT OVER 6000 LBS GWT; WAIVED FOR FUEL PURCHASE.

Airport Communications

CTAF/UNICOM: 122.8
WX AWOS-3: 133.325 (724-626-8745)
CLARKSBURG APPROACH: 119.425
CLARKSBURG DEPARTURE: 119.425
WX AWOS-3 at FWQ (17 nm NW): 118.475 (724-379-5815)
  • APCH/DEP SVC PRVDD BY CLEVELAND ARTCC ON FREQS 124.4/327.1 (ALTOONA RCAG) WHEN CLARKSBURG APCH CTL CLSD.

Nearby radio navigation aids

VOR radial/distance  VOR name  Freq  Var
IHDr272/13.8INDIAN HEAD VORTAC108.2006W
MGWr026/25.9MORGANTOWN VOR/DME111.6005W
AGCr146/26.0ALLEGHENY VOR/DME110.0009W
GRVr311/34.1GRANTSVILLE VOR/DME112.3006W

 
NDB name  Hdg/Dist  Freq  Var  ID
CAMOR049/6.129908WVV ...- ...-
STOYSTOWN267/34.920910WSYS ... -.-- ...

Airport Services

Fuel available: 100LL JET-A
AFTER HOURS FUEL CALL 412-916-6282.
Parking: hangars and tiedowns
Airframe service: MAJOR
Powerplant service: MAJOR

Runway Information

Runway 5/23

Dimensions: 3833 x 100 ft. / 1168 x 30 m
Surface: asphalt, in fair condition
Weight bearing capacity: 
Single wheel: 12.5
Runway edge lights: medium intensity
Operational restrictions: MARKINGS FADED.
RUNWAY 5  RUNWAY 23
Latitude: 39-57.405628N39-57.884745N
Longitude: 079-39.739762W079-39.205640W
Elevation: 1219.6 ft.1264.4 ft.
Gradient: 1.2% UP
Traffic pattern: leftleft
Runway heading: 049 magnetic, 041 true229 magnetic, 221 true
Markings: nonprecision, in poor conditionbasic, in poor condition
Visual slope indicator: 2-light PAPI on left (3.00 degrees glide path)2-light PAPI on right (3.00 degrees glide path)
Runway end identifier lights: yes
Touchdown point: yes, no lightsyes, no lights
Instrument approach: LOCALIZER
Obstructions: none24 ft. trees, 292 ft. from runway, 240 ft. right of centerline, 3:1 slope to clear
RWY 23 25 FT TREES 45 FT FM RWY END 229 FT RT; 24 FT TREES 157 FT FM RWY END 227 FT RT.

Runway 14/32

Dimensions: 2404 x 100 ft. / 733 x 30 m
Surface: asphalt, in fair condition
Weight bearing capacity: 
Single wheel: 12.5
Runway edge lights: medium intensity
THLD & EDGE LGT OTS INDEF. MARKINGS FADED.
RUNWAY 14  RUNWAY 32
Latitude: 39-57.508242N39-57.250210N
Longitude: 079-39.597182W079-39.207013W
Elevation: 1227.5 ft.1236.4 ft.
Gradient: 0.5%0.5%
Traffic pattern: leftleft
Runway heading: 139 magnetic, 131 true319 magnetic, 311 true
Markings: basic, in poor conditionbasic, in poor condition
Visual slope indicator: 2-light PAPI on left (3.00 degrees glide path)
PAPI OTS INDEF.
Touchdown point: yes, no lightsyes, no lights
Obstructions: 11 ft. trees, 335 ft. from runway, 104 ft. right of centerline, 12:1 slope to clearnone

Airport Ownership and Management from official FAA records

Ownership: Publicly-owned
Owner: FAYETTE COUNTY AIRPORT AUTHORITY
988 SKY DRIVE
LEMONT FURNACE, PA 15456
Phone 724-628-2276
Manager: JOHN NECKERAUER
988 SKY DRIVE
LEMONT FURNACE, PA 15456
Phone 724-628-2276
AFT HRS 412-916-6282.

Airport Operational Statistics

Aircraft based on the field: 29
Single engine airplanes: 23
Multi engine airplanes: 2
Ultralights: 4
    
Aircraft operations: avg 83/day *
48% local general aviation
38% transient general aviation
14% air taxi
<1% military
* for 12-month period ending 14 November 2018

Additional Remarks

RWY 23 HAS A 265 FT RELOCATED THLD FOR TAXI ONLY. RWY 14 HAS A 315 FT RELOCATED THLD FOR TAXI ONLY, RWY 32 HAS A 260 FT RELOCATED THLD FOR TAXI ONLY.
DEER & BIRDS ON & INVOF ARPT.
TWY B CLSD TO ACFT WITH WINGSPAN MORE THAN 40 FT.
APCH/ DEP SVC PRVVD BY CLEVELAND ARTCC (ZOB) ON 124.4/327.1 OR CALL PH# 440-774-0442 WHEN CLARKSBURG APCH (CKB) CLSD.

Instrument Procedures

NOTE: All procedures below are presented as PDF files. If you need a reader for these files, you should download the free Adobe Reader.

NOT FOR NAVIGATION. Please procure official charts for flight.
FAA instrument procedures published for use from 28 March 2019 at 0901Z to 25 April 2019 at 0900Z.

 
IAPs - Instrument Approach Procedures
RNAV (GPS) RWY 05   download (250KB)
LOC RWY 05   download (225KB)
NOTE: Special Take-Off Minimums/Departure Procedures apply   download (208KB)

Other nearby airports with instrument procedures:

KFWQ - Rostraver Airport (17 nm NW)
KLBE - Arnold Palmer Regional Airport (22 nm NE)
KWAY - Greene County Airport (22 nm W)
KMGW - Morgantown Municipal Airport-Walter L. Bill Hart Field (22 nm SW)
G05 - Finleyville Airpark (24 nm NW)
 
Loc | Ops | Rwys | IFR | FBO | Links
Com | Nav | Svcs | Stats | Notes
Area around KVVS (Joseph A Hardy Connellsville Airport)
 
Road maps at: MapQuest Bing Google
 
Aerial photo
WARNING: Photo may not be current or correct
Aerial photo of KVVS (Joseph A Hardy Connellsville Airport)
Photo by John Diehl
Photo taken 23-Sep-2007

Do you have a better or more recent aerial photo of Joseph A Hardy Connellsville Airport that you would like to share? If so, please send us your photo.

 
Sectional chart

 
Airport distance calculator
Flying to Joseph A Hardy Connellsville Airport? Find the distance to fly.

From to KVVS

Sunrise and sunset
Times for 24-Apr-2019
 Local
(UTC-4)
 Zulu
(UTC)
Morning civil twilight06:0010:00
Sunrise06:2910:29
Sunset20:0500:05
Evening civil twilight20:3300:33

Current date and time
Zulu (UTC)  24-Apr-2019 13:16:44
Local (UTC-4)  24-Apr-2019 09:16:44
 
METAR
KP53 
17nm NW 
241256Z AUTO 18005KT 06/M03 A2999 RMK AO1 SLP163 T00561033
KLBE 
22nm NE 
241253Z 28010KT 10SM FEW030 10/04 A2999
KMGW 
22nm SW 
241253Z 01003KT 10SM FEW023 11/05 A3001 RMK AO2 SLP159 T01060050
KAGC 
26nm NW 
241253Z VRB04KT 10SM FEW022 10/04 A2998 RMK AO2 SLP154 T01000044
K2G4 
27nm SE 
241250Z AUTO 29006KT 10SM BKN010 BKN015 06/05 A2996 RMK AO1
KAFJ 
30nm W 
241256Z AUTO 27009KT 10SM BKN020 09/06 A3003 RMK AO2 SLP165 T00940056
K2G9 
30nm E 
241255Z AUTO 27011KT 10SM SCT019 07/03 A2996 RMK AO2
TAF
KLBE 
22nm NE 
241120Z 2412/2512 29009KT P6SM BKN035 FM241500 28008G16KT P6SM BKN250 FM250000 30006KT P6SM SCT250 FM250900 VRB03KT P6SM VCSH BKN050
KMGW 
22nm SW 
241120Z 2412/2512 34007KT P6SM OVC030 FM241400 28006KT P6SM BKN250 FM250800 VRB03KT P6SM VCSH BKN050 FM251000 VRB03KT 6SM -SHRA BKN035
KAGC 
26nm NW 
241120Z 2412/2512 30008KT P6SM BKN250 FM250000 VRB03KT P6SM SCT250 FM250900 VRB03KT P6SM VCSH BKN050
NOTAMs
Click for the latest NOTAMs
NOTAMs are issued by the DoD/FAA and will open in a separate window not controlled by AirNav.

 

 
 

FBO, Fuel Providers, and Aircraft Ground Support

  
 Business Name 
 
 Contact 
 
 Services / Description 
 
Fuel Prices
 
Comments
  
Fayette County Airport Authority 724-628-2276
[email]
Airport management, Aviation fuel, Aircraft parking (ramp or tiedown), Flight training, Aircraft rental, Public telephone, Restrooms

More info about Fayette County Airport Authority
Phillips 66
100LL Jet A
FS $5.25 $4.45 
SS $5.25 $4.45 
 Updated 19-Apr-2019
 
   3 read write
FS=Full service
SS=Self service
Update Fuel Prices
 

Would you like to see your business listed on this page?

 If your business provides an interesting product or service to pilots, flight crews, aircraft, or users of the Joseph A Hardy Connellsville Airport, you should consider listing it here.  To start the listing process, click on the button below
 
Add a business
 

Other Pages about Joseph A Hardy Connellsville Airport

Update a link
 
Copyright © AirNav, LLC. All rights reserved. Privacy Policy  Contact